Powrót do katalogu

STARLINK-6319

AktywnyŁącznośćVLEO
NORAD 56532·PAYLOAD·🇺🇸 United States

Wystrzelony May 14, 2023 z Cape Canaveral Space Force Station

Loading…

Następne Przeloty (najbliższe 24 godziny)

TLE

ŚwieżeSource: CelesTrak SupGP

Epoka: Sep 15, 2026, 02:20 UTC

1 56532C 23065AF  26258.09770833 -.00020631  00000+0 -74746-3 0  2589
2 56532  43.0030 208.5633 0000795 265.3524  22.8523 15.27580524    10

Śledź STARLINK-6319 w czasie rzeczywistym z AllMySat

Download on the App Store